Regional Weather Roundup
Issued by NWS

Home | Current Version | Previous Version | Text Only | Print | Product List | Glossary Off
Versions: 1 2 3 4 5 6 7 8 9 10 11 12 13 14 15 16 17 18 19 20 21 22 23 24 25 26 27 28 29 30 31 32 33 34 35 36 37 38 39 40 41 42 43 44 45 46 47 48 49 50

000
ASUS43 KLMK 280002
RWRKY
KENTUCKY REGIONAL WEATHER ROUNDUP
NATIONAL WEATHER SERVICE LOUISVILLE KY
800 PM EDT THU APR 27 2017

NOTE "FAIR" INDICATES FEW OR NO CLOUDS BELOW 12,000 FEET
WITH NO SIGNIFICANT WEATHER AND/OR OBSTRUCTIONS TO VISIBILITY.

KYZ001>023-026-027-061>063-070>075-280100-
WESTERN AND SOUTH CENTRAL KENTUCKY

CITY           SKY/WX    TMP DP  RH WIND       PRES   REMARKS
PADUCAH        CLEAR     60  48  64 CALM      29.82R
HENDERSON      PTCLDY    58  48  69 SW5       29.84R
OWENSBORO      PTCLDY    59  48  67 W5        29.83S
HOPKINSVILLE   CLOUDY    63  50  62 SW5       29.84R
BOWLING GREEN  CLOUDY    62  51  67 SW6       29.85R
GLASGOW        NOT AVBL
$$

KYZ024-025-028>034-038-045-046-053-280100-
NORTH CENTRAL KENTUCKY

CITY           SKY/WX    TMP DP  RH WIND       PRES   REMARKS
LOUISVILLE/SDF CLOUDY    61  47  59 SW9       29.83S
LOUISVILLE/LOU CLOUDY    60  48  64 S7        29.83F
FORT KNOX      MOCLDY    58  49  69 S6        29.83R
$$

KYZ035>037-039>044-047>052-055>060-089>105-280100-
NORTHEAST KENTUCKY

CITY           SKY/WX    TMP DP  RH WIND       PRES   REMARKS
LEXINGTON      PTCLDY    62  47  57 W10       29.85R
COVINGTON      MOCLDY    59  47  64 W9        29.82R
FRANKFORT      PTCLDY    60  46  59 W5        29.83R
$$

KYZ054-064>069-076>088-106>120-280100-
SOUTHEAST KENTUCKY

CITY           SKY/WX    TMP DP  RH WIND       PRES   REMARKS
JACKSON        CLEAR     70  55  59 VRB5      29.82R
LONDON         PTCLDY    69  49  48 NW7       29.83R
SOMERSET       NOT AVBL
MIDDLESBORO    CLEAR     71  60  66 CALM      29.82R
MONTICELLO     PTCLDY    67  49  52 W7        29.86R
$$




USA.gov is the U.S. government's official web portal to all federal, state and local government web resources and services.